Content
SEND FEEDBACK

Daily
Averages
Monthly
Summary
United States of America

EUREKA, CALIFORNIA


Home > North America > United States > California
Elevation: 59 feet     Latitude: 40 48N     Longitude: 124 07W

WEATHER
 
SELECT A DAY
Number of Records: 243,827;   Date Range: 1/1/95 - 10/29/14
 
SHARE

PRINT THIS DATA

[ ← Previous Day ]
WEATHER ALMANAC - SEPTEMBER 25, 2013
[ Next Day → ]
[ °C ]   °F
Weather ElementAverageHighLow
Temperature53.6 °F63 °F (2:53 pm)44.6 °F (7:00 am)
Dewpoint46.7 °F50 °F (2:53 am)43 °F (11:53 pm)
Humidity79.1 %100 % (7:00 am)55 % (3:53 pm)
Barometer30.01 in30.04 in (9:53 pm)29.97 in (4:25 am)
Wind Speed5.3 mph15 mph (2:53 pm)
Wind Gust20.7 mph (5:53 pm)
Weather ElementAverage
Visibility8.9 mi
Wind DirectionSSE (144.4 °)

Weather ElementTotal
Precipitation0.08 in
Heating Degree Days11.2 (Base 65)
Growing Degree Days3.8 (Base 50)
Averaged from 27 records on September 25, 2013
WEATHER CONDITIONS BREAKOUT
WIND DIRECTION BREAKOUT
WEATHER BY HOUR - SEPTEMBER 25, 2013
[ °C ]   °F
Local TimeTemperatureDewpointHumidityBarometerVisibilityWind DirectionWind SpeedGust SpeedPrecipitationEventsConditions
1:53 AM51.1 °F48.9 °F92 %29.99 in10.0 miEast (100°)4.6 mph0.00 inScattered Clouds
2:53 AM52.0 °F50.0 °F93 %29.99 in7.0 miCalm0.01 inRainLight Rain
3:53 AM51.1 °F48.9 °F92 %29.99 in10.0 miNE (50°)8.1 mph0.01 inRainLight Rain
4:00 AM51.8 °F48.2 °F88 %29.98 in6.0 miEast (90°)4.6 mph18.4 mph0.02 inRainRain
4:25 AM51.8 °F48.2 °F88 %29.97 in10.0 miCalm0.02 inMostly Cloudy
4:53 AM48.9 °F46.9 °F93 %29.99 in10.0 miSE (140°)3.5 mph0.02 inPartly Cloudy
5:53 AM48.0 °F46.0 °F93 %29.99 in4.0 miCalmClear
6:53 AM46.9 °F45.0 °F93 %30.00 in9.0 miCalmPartly Cloudy
7:00 AM44.6 °F44.6 °F100 %29.98 in1.5 miCalmPartly Cloudy
7:11 AM46.4 °F44.6 °F93 %29.99 in4.0 miEast (100°)3.5 mphPartly Cloudy
7:53 AM48.0 °F46.9 °F96 %30.01 in10.0 miCalmClear
8:53 AM53.1 °F50.0 °F89 %30.01 in10.0 miESE (120°)3.5 mphClear
9:53 AM57.0 °F48.9 °F74 %30.02 in10.0 miCalmClear
10:53 AM60.1 °F48.9 °F67 %30.02 in10.0 miWSW (250°)5.8 mphScattered Clouds
11:53 AM60.1 °F48.0 °F64 %30.03 in10.0 miWNW (290°)8.1 mphClear
12:53 PM59.0 °F48.9 °F69 %30.03 in10.0 miNW (320°)9.2 mph0.00 inRainLight Rain
1:53 PM61.0 °F46.9 °F60 %30.02 in10.0 miNW (320°)12.7 mph0.00 inClear
2:53 PM63.0 °F46.9 °F56 %30.01 in10.0 miNNW (330°)15.0 mphClear
3:53 PM60.1 °F44.1 °F55 %30.02 in10.0 miNNW (330°)12.7 mphClear
4:53 PM61.0 °F45.0 °F56 %30.01 in10.0 miNNW (330°)15.0 mphClear
5:53 PM60.1 °F46.0 °F60 %30.02 in10.0 miNNW (340°)13.8 mph20.7 mphMostly Cloudy
6:53 PM55.9 °F45.0 °F67 %30.02 in10.0 miNorth (360°)6.9 mphPartly Cloudy
7:53 PM54.0 °F46.0 °F75 %30.02 in10.0 miNorth (350°)8.1 mphClear
8:53 PM53.1 °F46.0 °F77 %30.03 in10.0 miNE (40°)3.5 mphPartly Cloudy
9:53 PM53.1 °F46.0 °F77 %30.04 in10.0 miNE (40°)3.5 mphClear
10:53 PM48.9 °F44.1 °F83 %30.04 in10.0 miCalmClear
11:53 PM46.9 °F43.0 °F86 %30.04 in10.0 miCalmClear
Hourly data recorded from KACV, located miles away from Eureka, California







STORIES FROM OUR PARTNERS